Regional Weather Roundup
Issued by NWS

Home | Current Version | Previous Version | Text Only | Print | Product List | Glossary On
Versions: 1 2 3 4 5 6 7 8 9 10 11 12 13 14 15 16 17 18 19 20 21 22 23 24 25 26 27 28 29 30 31 32 33 34 35 36 37 38 39 40 41 42 43 44 45 46 47 48 49 50
440
ASUS44 KJAN 201703
RWRMS

MISSISSIPPI HOURLY WEATHER ROUNDUP
NATIONAL WEATHER SERVICE JACKSON MS
1200 PM CDT MON OCT 20 2014

NOTE: "FAIR: INDICATES FEW OR NO CLOUDS BELOW 12,000 FEET WITH NO
SIGNIFICANT WEATHER AND/OR OBSTRUCTIONS TO VISIBILITY.

MSZ001>002-007>008-010>013-018>021-025>028-034>036-201800-
NORTHWEST MISSISSIPPI

CITY           SKY/WX    TMP DP  RH WIND       PRES   REMARKS
CLARKSDALE     FAIR      68  50  52 CALM      30.11F
CLEVELAND      FAIR      69  52  54 CALM      30.10S
GREENWOOD      SUNNY     69  50  50 VRB3      30.10F
GREENVILLE     SUNNY     69  48  47 CALM      30.10F
GRENADA          N/A    N/A N/A N/A MISG        N/A
OLIVE BRANCH   PTSUNNY   64  52  63 W6        30.09F
OXFORD         FAIR      64  48  55 W6        30.11F
TUNICA         SUNNY     68  50  52 SW8       30.10F
$$

MSZ003>006-009-014>017-022>024-029>033-037>039-201800-
NORTHEAST MISSISSIPPI

CITY           SKY/WX    TMP DP  RH WIND       PRES   REMARKS
COLUMBUS AFB   NOT AVBL
CORINTH        FAIR      68  50  52 SW8         N/A
GOLDN TRIANGLE SUNNY     72  50  46 NW6       30.10F
TUPELO         SUNNY     68  50  52 NW3       30.09F
$$

MSZ040-058-201800-
CENTRAL MISSISSIPPI

CITY           SKY/WX    TMP DP  RH WIND       PRES   REMARKS
JACKSON INTL   MOSUNNY   71  47  42 VRB3      30.08F
JACKSON HAWKNS SUNNY     72  48  42 CALM      30.09F
MERIDIAN KEY   SUNNY     71  47  42 CALM      30.08F
MERIDIAN NAS   MOSUNNY   70  47  43 NW6       30.09F
RAYMOND        FAIR      70  64  83 SW3       30.09F
VICKSBURG      SUNNY     72  50  45 VRB7      30.10F
$$

MSZ059>079-201800-
SOUTH MISSISSIPPI

CITY           SKY/WX    TMP DP  RH WIND       PRES   REMARKS
BROOKHAVEN     FAIR      72  52  49 N3        30.10F
COLUMBIA         N/A    N/A N/A N/A MISG        N/A
HATTIESBURG    SUNNY     72  50  45 E3        30.09F
MCCOMB         MOSUNNY   73  48  41 N7        30.08F
NATCHEZ        SUNNY     70  52  52 N5        30.09F
PINE BELT      SUNNY     70  48  46 SW3       30.10F
$$

MSZ080>082-201800-
COASTAL MISSISSIPPI

CITY           SKY/WX    TMP DP  RH WIND       PRES   REMARKS
BAY ST LOUIS   SUNNY     75  46  35 VRB5      30.07F
BILOXI         SUNNY     76  50  39 N6        30.06F
PASCAGOULA     SUNNY     77  53  43 CALM      30.06F
GULFPORT       SUNNY     75  50  41 NW3       30.06F
$$



USA.gov is the U.S. government's official web portal to all federal, state and local government web resources and services.